Showing default

COSMOS 2092, 20737

Orbit data source: Space-Track

COSMOS 2092, 20737 is a payload satellite owned by UNKS (CIS) in LEO that was launched on Wed, 08 Aug 1990 UTC via a TSIKLON-3 launch vehicle from the Plesetsk Missile And Space Complex (PKMTR). Payload-class satellites include a variety of spacecraft equipped with specific instruments for various scientific and technological missions. These include communications satellites like Starlink; space stations such as the ISS; scientific satellites like the Hubble; Earth observation satellites from companies like Planet Labs, Umbra, and HawkEye 360; GPS; miniature CubeSats for education and research; and military/defense satellites.

Loading next visibility...
Identifier
20737, 1990-070C
Orbit
LEO
Last TLE update
12 hours ago
Origin
Manufacturer
NPO PM
Mission
Defense Communications
Bus & Motor
STRELA-3, Unknown motor
Mass
225 kg wet, 225 kg dry
Launch date (UTC)
1990-08-08 (35 years ago)
Launch vehicle
TSIKLON-3
Launch site
Plesetsk Missile And Space Complex (PKMTR)
Object type
Payload
Rocket body
Debris
Shape & HBR
Cyl, 1.6 m
Radar Cross Section
1.257 m², Large (>1 m²)

Expand to show TLE details & history

TLE from 12 hours ago
0 COSMOS 2092
1 20737U 90070C   25128.73866722  .00000016  00000-0  32116-4 0  9998
2 20737  82.5713 204.7093 0003508 345.3922 138.9260 12.63336208602287
Epoch: 2025-05-08T17:43Z
Definitive object data (Epoch: 2025-05-08T17:43:40.847Z)
Latitude
55.04958°
Longitude
-118.71385°
Altitude
1,420.318 km
Speed
7.155 km/s
True Right ascension
00h 56m 02s
True Declination
54° 54' 06"
Sunlit
Object was in daylight at TLE epoch
Visualization TLE readout
Latitude
16.58071°
Longitude
-110.53912°
Altitude
1,414.046 km
Speed
7.154 km/s
Apparent Right ascension
01h 28m 48s
Apparent Declination
-8° 32' 50"
Sunlit
Object is in daylight
Visualization observer readout
Local Sidereal Time
13:28:54
Azimuth
0.049° NNE
Elevation
-58.631°
Doppler factor
1
Orbital elements
Apogee altitude
1,409.255 km
Perigee altitude
1,403.793 km
Semi-major axis
7,784.661 km
Eccentricity
0.0003508
Inclination
82.5713°
RAAN
204.7093°
Arg. of periapsis
345.3922°
True anomaly
138.9524°
Mean anomaly
138.926°
Eccentric anomaly
138.9392°
Mean motion
3.15997 °/min
BSTAR
0.000032116
Orbital period
113.92 mins
Loading maneuver chart data...
Loading SW <> Apogee altitude chart data...
Loading historical data...
Loading historical data...
Loading historical data...
Loading historical data...
Loading historical data...
Loading historical data...
Loading historical data...

COSMOS 2092 Visibility forecast

Observer location: undefined°, undefined°

Span
Click to sort rows by Start time (UTC) header in descending order
Start Az.
Max El. time (UTC)
Max El. Az.
Max El.
End time (UTC)
End Az.
15 mins2025-05-09 06:28:15.681Z209.68° SW2025-05-09 06:36:15.681Z293.981° NW37.766°2025-05-09 06:43:15.681Z356.868° N
14 mins2025-05-09 16:30:15.681Z0.604° NNE2025-05-09 16:37:15.681Z96.774° ESE42.214°2025-05-09 16:44:15.681Z160.448° S
10 mins2025-05-09 18:26:15.681Z319.475° NNW2025-05-09 18:31:15.681Z275.343° WNW22.482°2025-05-09 18:36:15.681Z233.853° WSW
|